051102 084  0.1-  1.0-    060526 213  0.6-  1.6+    070601 941  0.8+  0.6-  

051102 084  0.1-  0.7-    060526 442  0.0   0.1+    070601 J70  0.2-  1.8+  

051102 349  0.1-  0.1-    060526 442  0.5-  0.4+    070601 J70  0.8-  1.7-  

051102 349  0.1-  0.3-    060526 442  0.0   0.1-    070601 941  0.8+  0.6-  

051103 379  0.2+  0.3+    060526 A06  0.8-  0.4-    070601 J70 (0.9-  2.1+) 

051103 379  0.7+  0.1-    060526 J78  0.1+  0.7-    070601 J70 (3.1-  1.0+) 

051103 379  0.7+  0.1-    060526 A06  1.7-  1.1+    070601 J70 (1.8-  3.9+) 

051103 379  0.0   0.0     060526 J78  0.4-  0.5+    070601 941  0.7+  0.7-  

051105 232  0.2-  0.9-    060526 J78  1.6-  1.4-    070602 D88  1.2+  0.7-  

051105 232  0.2+  0.6-    060526 232  0.2-  0.6+    070602 D88  0.9+  0.8-  

051105 232  0.6-  0.6-    060526 232  0.7-  0.3-    070602 D88  0.4+  0.1-  

051106 939  0.6-  0.2-    060526 232  0.6-  0.4+    070608 213  0.2-  0.3-  

051106 939  0.4-  0.2-    060527 204  0.3-  0.5+    070608 213  0.2-  0.2-  

051106 939  0.4-  0.2-    060527 204  0.1+  0.4+    070608 213  0.7+  1.4-  

051106 A50  0.0   0.2-    060527 A01  0.0   0.5-    070610 D88  0.3+  0.4+  

051106 A50  0.3-  0.2-    060527 A01  0.7-  0.3-    070610 D88  0.3+  0.4-  

051106 A50  0.3-  0.4-    060528 A01  0.6-  0.5-    070610 J70  1.3-  0.4+  

051106 A50  0.3-  0.3-    060528 349  0.5-  0.6+    070610 J70 (2.1-  2.1+) 

051106 A50  0.0   0.3-    060528 349  0.6-  0.6+    070610 J70 (2.6-  2.7+) 

051108 349  0.1+  0.2-    060528 J97  0.6-  0.0     070610 J70 (1.9-  3.3+) 

051108 349  0.0   0.4-    060528 J78  0.1+  0.1+    070610 J70  1.8-  1.6+  

051108 349  0.2+  0.5-    060528 J78  1.1+  0.2-    070610 J49  0.7-  1.8-  

051112 704 (3.9-  6.7-)   060528 J97  0.5+  0.6-    070610 J49  0.3-  1.6-  

051112 704  0.1+  0.3-    060528 J78  0.5+  0.6+    070610 J49  0.2+  1.5-  

051112 704  0.7+  0.4-    060528 J97  0.9-  0.7+    070611 J67  0.1-  0.1-  

051112 704  1.0+  2.0-    060601 J64  0.4-  1.2+    070611 J67  0.5+  0.4-  

051112 704 (0.7+  2.5+)   060601 J64  0.3-  0.0     070611 J67  0.2+  0.4-  

051112 349  0.0   0.3-    060601 J64  0.3-  0.1-    070612 D88  0.4+  0.4-  

051112 349  0.1-  0.3-    060602 213  0.9-  0.7+    070612 D88  0.8+  0.1-  

051112 349  0.0   0.1-    060602 213  0.9-  0.5+    070612 D88  0.9+  0.1-  

051112 D83  0.7+  0.4-    060602 213  0.4-  0.5+    070612 J53  0.3-  0.7-  

051112 D83  1.0+  0.6-    060602 J78  0.1+  0.8+    070612 J53  0.6+  0.3-  

051112 D83  0.5+  0.3-    060602 J78  0.1-  0.1-    070612 J53  0.3+  0.5+  

051112 D83  0.5+  0.3-    060602 J78  0.5+  0.8+    070616 939  0.8-  0.4+  

051123 704 (5.4-  6.0-)   060602 232 (1.4-  2.7-)   070616 939  0.0   0.0   

051123 704 (1.7+  2.3-)   060602 232  0.3+  1.0+    070616 939  0.7+  0.3-  

051123 704  2.0+  1.4+    060602 232  0.1-  0.9-    070623 349  1.3+  0.7-  

051126 232  0.9+  0.6-    060603 J78  1.5+  1.1-    070623 349  1.8+  1.0-  

051126 232  0.1+  1.2-    060603 J78  1.1+  0.6-    070628 J70 (2.5-  0.3+) 

051126 232 (0.4-  2.6-)   060603 J78  1.5+  0.1-    070628 J70 (3.4-  3.0-) 

051129 349  0.2+  0.5-    060603 J79  0.7-  0.6+    070628 J70 (3.2-  3.6+) 

051129 349  0.0   0.4-    060603 442  1.3-  0.0     070706 232  0.3+  0.3-  

051129 349  0.1-  0.3-    060603 442  0.4-  0.1+    070706 232  0.7+  0.7-  

051130 D88  0.1+  1.1-    060603 J79  0.1-  1.1+    070706 232  0.5+  0.6-  

051130 D88  0.1-  0.3-    060603 J79  1.0-  0.3+    070713 215  0.5-  0.6-  

051130 D88  0.1+  0.9-    060603 442  0.5-  0.6+    070713 215  0.3-  0.8-  

051204 084  0.2+  0.5-    060603 J76  0.4-  0.3+    070713 215  0.7-  0.7-  

051204 084  0.1+  0.6-    060603 J76  0.3+  0.8+    070804 204  0.5+  0.2+  

051206 939  0.2-  0.1-    060603 J76  0.5+  0.1-    070804 204  0.4-  0.5-  

051206 939  0.3-  0.2-    060604 J97  0.3-  0.8-    2008/                   

051206 939  0.4-  0.2-    060604 J97  0.3-  0.5-    080105 349 (2.8-  1.2+) 

051206 H45 (4.1-  0.8+)   060604 J97  0.2-  0.1+    080109 B30  0.5-  0.1-  

051206 H45  0.5-  0.0     060604 J64  0.3-  0.7+    080130 349 (2.9-  0.7-) 

051206 H45  0.5-  0.2+    060604 J64  0.4-  0.3+    080207 204  1.6-  1.5+  

051206 H45  0.3-  0.4-    060604 J64  0.9-  0.1+    080208 204  2.4-  0.5+  

051210 232  0.4-  0.4-    060604 J79  0.5+  1.1+    080309 A55  2.4-  0.6-  

051210 232  0.3-  0.1-    060604 J79  0.6-  1.0+    080309 A55  0.6-  0.8-  

051210 232  0.1-  0.1+    060604 J79  0.8+  0.9+    080309 A55  1.2+  1.2-  

051211 118  0.2-  0.1+    060605 J79  0.0   0.6+    080314 A77 (3.5-  2.9+) 

051211 118  0.2+  0.4+    060605 J79  0.4-  1.9+    080314 A77  2.2-  2.1+  

051211 118  0.4-  0.4+    060605 J79  0.3-  1.0+    080314 A77  1.8-  1.7+  

051213 349  0.0   0.2-    060607 349  0.8-  0.8+    080331 461  2.3-  1.6+  

051213 349  0.1+  0.2-    060607 349  0.4-  1.2+    080331 461  2.3-  1.7+  

051213 349  0.2+  0.3-    060610 232  0.2-  0.8-    080405 A77 (2.4-  3.1+) 

051213 084  0.4+  0.3-    060610 232  1.2-  0.8+    080501 132 (3.3-  3.7+) 

051213 084  0.0   0.2+    060610 232  1.1-  1.0+    080501 132 (0.7-  4.2+) 

051213 084  0.2+  0.5+    060610 939  0.0   0.3+    080501 132 (3.0+  4.9+) 

051213 084  0.1+  0.0     060610 939  0.2-  0.2+    080506 A77 (5.8-  2.3+) 

051217 349  0.2+  0.2+    060610 939  0.3-  0.2+    080506 A77 (3.8-  3.8+) 

051217 349  0.1+  0.1+    060610 J97  0.0   1.2-    080507 J24 (0.4-  2.9+) 

051217 349  0.1+  0.2+    060611 473  0.5-  0.6-    080507 J24 (6.9-  4.6+) 

051219 213  0.3+  1.1+    060613 J97  0.2-  0.1+    080512 J47 (1.6-  2.5+) 

051219 213  0.5+  1.1+    060613 J55  0.2-  0.5+    080512 J47 (1.7-  2.7+) 

051219 213  0.2+  0.9+    060613 J55 (3.7-  3.7+)   080512 J47 (1.9-  2.3+) 

051221 704 (1.4-  6.9-)   060613 J55  0.3+  0.6+    080525 J47 (4.7-  6.3+) 

051221 704 (2.3+  0.4+)   060617 232  0.5-  0.0     080525 J47 (3.2-  4.2+) 

051221 704  0.2+  0.3+    060617 232  0.5-  0.1+    080525 J47 (3.9-  3.9+) 

051221 704 (0.4-  3.5+)   060617 232  0.3-  0.2+                            

051221 213  0.2-  0.7+    060625 J64  0.9-  0.2-                            



NAKANO

         **** Don't distribute anyone except personal use only ****

                (C) Copyright 2008 OAA/ComputingSection

write mail from CFAD0::NAKANO on 2008-07-01 07:43:41(JST).

 

    C/2003 WT42 (LINEAR)

Epoch 2006 Apr. 15.0 TT = JDT 2453840.5  

T 2006 Apr. 10.76683 TT                                 Nakano

q   5.1909259            (2000.0)            P               Q

z  -0.0004944      Peri.   92.46728     -0.66670211     -0.63511128

 +/-0.0000004      Node    48.45384     +0.28216453     -0.69945868

e   1.0025663      Incl.   31.41067     +0.68984888     -0.32770598

From 2254 observations 2003 Oct. 30-2007 May 30, mean residual 0".56.

   (1/a)org.= +0.000035, (1/a)fut.= +0.000190 (+/-0.000000), Q= 9.



NAKANO

         **** Don't distribute anyone except personal use only ****

                (C) Copyright 2007 OAA/ComputingSection

write mail from CFAD0::NAKANO on 2007-06-06 06:36:26(JST).

 

     Following observations were included:

    CK03W42T  C2005 01 15.84461 05 28 10.23 +48 27 40.9 L00263         r     201

    CK03W42T  C2005 01 15.85123 05 28 10.04 +48 27 40.9 L00263         r     201



    C/2003 WT42 (LINEAR)

Epoch 2006 Apr. 15.0 TT = JDT 2453840.5  

T 2006 Apr. 10.76587 TT                                 Nakano

q   5.1909296            (2000.0)            P               Q

z  -0.0004930      Peri.   92.46699     -0.66670025     -0.63511231

 +/-0.0000004      Node    48.45401     +0.28216566     -0.69945898

e   1.0025592      Incl.   31.41071     +0.68985021     -0.32770335

From 1637 observations 2003 Oct. 30-2006 Nov. 21, mean residual 0".49.

   (1/a)org.= +0.000037, (1/a)fut.= +0.000191 (+/-0.000000), Q= 9.



NAKANO

         **** Don't distribute anyone except personal use only ****

                (C) Copyright 2006 OAA/ComputingSection

write mail from CFAD0::NAKANO on 2006-12-06 04:13:52(JST).

 





    C/2003 WT42 (LINEAR)

Epoch 2006 Apr. 15.0 TT = JDT 2453840.5  

T 2006 Apr. 10.76884 TT                                 Nakano

q   5.1909161            (2000.0)            P               Q

z  -0.0004894      Peri.   92.46734     -0.66670376     -0.63510938

 +/-0.0000008      Node    48.45393     +0.28216312     -0.69945988

e   1.0025407      Incl.   31.41064     +0.68984786     -0.32770709

From 805 observations 2003 Oct. 30-2005 Dec. 25, mean residual 0".47.

   (1/a)org.= +0.000040, (1/a)fut.= +0.000195 (+/-0.000001), Q= 8.



NAKANO

         **** Don't distribute anyone except personal use only ****

                (C) Copyright 2006 OAA/ComputingSection

write mail from CFAD0::NAKANO on 2006-01-01 05:08:27(JST).





    C/2003 WT42 (LINEAR)

Epoch 2006 Apr. 15.0 TT = JDT 2453840.5  

T 2006 Apr. 10.76905 TT                                 Nakano

q   5.1909269            (2000.0)            P               Q

z  -0.0004885      Peri.   92.46726     -0.66670267     -0.63511113

 +/-0.0000009      Node    48.45386     +0.28216533     -0.69945887

e   1.0025358      Incl.   31.41059     +0.68984801     -0.32770588

From 638 observations 2003 Oct. 30-2005 Sept. 17, mean residual 0".47.

   (1/a)org.= +0.000041, (1/a)fut.= +0.000196 (+/-0.000001), Q= 8.



NAKANO

         **** Don't distribute anyone except personal use only ****

                (C) Copyright 2005 OAA/ComputingSection

write mail from CFAD0::NAKANO on 2005-10-01 02:43:05(JST).

 



◎C/2003 WT42の軌道と予報位置です



 上尾の門田健一氏から9月17日の観測が報告されました.氏の CCD全光度は

14.6等でした.近日点距離の大きな彗星ですが,今年末・来年初には,13等級

まで明るくなるでしょう.

 

    C/2003 WT42 (LINEAR)

Epoch 2006 Apr. 15.0 TT = JDT 2453840.5  

T 2006 Apr. 10.76905 TT                                 Nakano

q   5.1909269            (2000.0)            P               Q

z  -0.0004885      Peri.   92.46726     -0.66670267     -0.63511113

